This is the latest recevied weather packets stored in our database for station/object W6ORV. If no packets are shown the sender has not sent any weather packets the latest 10 day(s).
| Time | Temp. | Humidity | Pressure | Rain* | Wind** | Luminosity | Snow |
|---|---|---|---|---|---|---|---|
| 1777476930 | 12.78° C | 83% | 4303.5 hPa | 0 mm | - | 301 W/m² | - |
| 1777476629 | 11.67° C | 87% | 4303.5 hPa | 0 mm | - | 290 W/m² | - |
| 1777476325 | 11.11° C | 88% | 4303.5 hPa | 0 mm | - | 253 W/m² | - |
| 1777476021 | 11.11° C | 88% | 4303.6 hPa | 0 mm | - | 226 W/m² | - |
| 1777475716 | 10.56° C | 89% | 4303.6 hPa | 0 mm | - | 216 W/m² | - |
| 1777475413 | 10° C | 90% | 4303.7 hPa | 0 mm | - | 278 W/m² | - |
| 1777475108 | 10° C | 91% | 4303.7 hPa | 0 mm | - | 133 W/m² | - |
| 1777474805 | 10° C | 91% | 4303.6 hPa | 0 mm | - | 115 W/m² | - |
| 1777474501 | 9.44° C | 93% | 4303.6 hPa | 0 mm | - | 179 W/m² | - |
| 1777474197 | 8.89° C | 94% | 4303.8 hPa | 0 mm | - | 156 W/m² | - |
| 1777473895 | 8.33° C | 95% | 4303.7 hPa | 0 mm | - | 133 W/m² | - |
| 1777473593 | 7.78° C | 96% | 4303.8 hPa | 0 mm | - | 118 W/m² | - |
| 1777473288 | 7.78° C | 97% | 4303.7 hPa | 0 mm | - | 100 W/m² | - |
| 1777472984 | 7.22° C | 97% | 4303.8 hPa | 0 mm | - | 94 W/m² | - |
| 1777472681 | 6.67° C | 97% | 4303.6 hPa | 0 mm | - | 72 W/m² | - |
| 1777472377 | 6.67° C | 97% | 4303.5 hPa | 0 mm | - | 59 W/m² | - |
| 1777472076 | 6.67° C | 97% | 4303.5 hPa | 0 mm | - | 48 W/m² | - |
| 1777471770 | 6.67° C | 98% | 4303.9 hPa | 0 mm | - | 33 W/m² | - |
| 1777471467 | 6.11° C | 98% | 4303.6 hPa | 0 mm | - | 30 W/m² | - |
| 1777471164 | 5.56° C | 98% | 4303.6 hPa | 0 mm | - | 28 W/m² | - |
| 1777470861 | 5.56° C | 98% | 4303.7 hPa | 0 mm | - | 26 W/m² | - |
| 1777470558 | 5.56° C | 98% | 4303.7 hPa | 0 mm | - | 23 W/m² | - |
| 1777470254 | 5.56° C | 98% | 4303.7 hPa | 0 mm | - | 20 W/m² | - |
| 1777469950 | 5.56° C | 98% | 4303.5 hPa | 0 mm | - | 17 W/m² | - |
| 1777469645 | 5° C | 98% | 4303.6 hPa | 0 mm | - | 14 W/m² | - |
* Rain latest hour (hover to see other rain measurements)
** Current wind speed in m/s (hover to see current wind gust speed)